Powrót do katalogu

SL-16 DEB

AktywnyLEO
NORAD 22574·DEBRIS·🇷🇺 Russia

Wystrzelony Dec 25, 1992 z Baikonur Cosmodrome

Loading…

Następne Przeloty (najbliższe 24 godziny)

TLE

ŚwieżeSource: Space-Track

Epoka: Sep 13, 2026, 18:59 UTC

1 22574U 92093HW  26256.79140992  .00001408  00000-0  68435-3 0  9997
2 22574  71.0859  30.7742 0124025 356.7448 152.8506 14.15988422713716

Śledź SL-16 DEB w czasie rzeczywistym z AllMySat

Download on the App Store